�N����,����,�~����,�C��,���x,�C��,����,���ϕ���,�ő�u�ԕ���,�ő厞����,���˗�,�I�_���x,�n�����x,�ő啗���N��,DTYPE
"23/04/17","00:10",0.0,10.9,92.7,1000.5,330.3,2.3,4.7,341.3,0.00,9.8,14.6,"00:03:20",1
"23/04/17","00:20",0.2,10.9,93.0,1000.8,321.1,2.2,3.7,316.3,0.00,9.9,14.7,"00:19:44",1
"23/04/17","00:30",0.0,10.8,93.1,1000.8,322.5,2.8,4.3,321.0,0.00,9.8,14.7,"00:20:08",1
"23/04/17","00:40",0.0,10.8,93.3,1000.8,326.2,2.3,4.8,342.3,0.00,9.8,14.6,"00:37:44",1
"23/04/17","00:50",0.0,10.7,93.5,1000.8,324.6,2.5,4.2,318.7,0.00,9.7,14.6,"00:48:10",1
"23/04/17","01:00",0.0,10.6,93.6,1001.0,328.0,2.7,3.7,323.8,0.00,9.7,14.7,"00:52:32",1
"23/04/17","01:10",0.0,10.7,93.8,1001.2,311.5,2.5,3.5,320.4,0.00,9.8,14.8,"01:05:28",1
"23/04/17","01:20",0.2,10.6,93.9,1001.5,319.2,2.7,3.9,332.5,0.00,9.7,14.5,"01:18:48",1
"23/04/17","01:30",0.0,10.2,93.5,1001.9,329.9,3.5,5.5,323.7,0.00,9.2,14.8,"01:29:02",1
"23/04/17","01:40",0.0,10.0,93.3,1001.7,325.5,3.7,6.2,317.6,0.00,9.0,14.7,"01:31:14",1
"23/04/17","01:50",0.0,10.0,93.0,1001.9,322.2,3.4,4.9,316.1,0.00,9.0,14.7,"01:41:24",1
"23/04/17","02:00",0.0,10.1,92.9,1001.9,327.3,2.8,3.9,339.3,0.00,9.0,14.5,"01:50:16",1
"23/04/17","02:10",0.0,10.0,92.8,1001.7,304.3,2.5,4.1,323.7,0.00,8.9,14.5,"02:00:08",1
"23/04/17","02:20",0.0,9.9,92.8,1001.9,314.5,2.5,4.2,320.7,0.00,8.8,14.3,"02:16:08",1
"23/04/17","02:30",0.0,9.5,92.6,1001.7,299.1,2.6,4.2,302.4,0.00,8.4,14.5,"02:29:16",1
"23/04/17","02:40",0.0,9.4,92.3,1001.9,317.2,3.4,5.1,322.5,0.00,8.3,14.6,"02:34:12",1
"23/04/17","02:50",0.0,9.3,91.9,1001.9,318.7,3.1,4.9,315.1,0.00,8.1,14.4,"02:44:44",1
"23/04/17","03:00",0.0,9.2,91.6,1001.7,301.4,2.1,3.3,312.5,0.00,7.9,14.3,"02:51:20",1
"23/04/17","03:10",0.0,9.2,91.4,1002.2,323.1,2.3,4.2,313.9,0.00,7.9,14.2,"03:01:22",1
"23/04/17","03:20",0.0,9.1,91.5,1002.6,330.8,2.0,3.6,314.1,0.00,7.8,14.3,"03:18:54",1
"23/04/17","03:30",0.0,9.1,91.6,1002.9,310.8,2.7,4.4,316.4,0.00,7.8,14.2,"03:27:54",1
"23/04/17","03:40",0.0,9.1,91.5,1003.1,304.7,2.2,3.6,315.4,0.00,7.8,14.2,"03:36:16",1
"23/04/17","03:50",0.0,9.2,91.5,1002.9,319.2,2.1,3.2,316.2,0.00,7.9,14.0,"03:43:28",1
"23/04/17","04:00",0.0,9.0,91.6,1003.1,341.6,1.8,3.1,338.0,0.00,7.7,14.2,"03:50:16",1
"23/04/17","04:10",0.0,8.7,91.9,1003.6,319.8,1.7,2.1,336.3,0.00,7.5,14.1,"04:00:44",1
"23/04/17","04:20",0.0,8.8,92.2,1003.6,317.8,1.6,2.4,328.1,0.00,7.6,14.1,"04:16:06",1
"23/04/17","04:30",0.0,9.0,92.4,1003.6,319.7,0.8,2.1,291.6,0.00,7.9,14.1,"04:20:44",1
"23/04/17","04:40",0.0,9.0,92.6,1004.1,319.3,1.6,2.5,315.3,0.00,7.9,14.0,"04:35:48",1
"23/04/17","04:50",0.0,9.0,92.8,1004.1,328.0,1.1,1.8,340.1,0.00,7.9,13.9,"04:43:10",1
"23/04/17","05:00",0.0,9.0,93.0,1004.1,317.7,1.6,2.6,335.1,0.00,8.0,14.1,"04:55:38",1
"23/04/17","05:10",0.0,9.0,93.2,1004.3,323.9,1.5,2.5,319.8,0.00,8.0,13.9,"05:02:38",1
"23/04/17","05:20",0.0,9.0,93.3,1004.5,278.7,2.1,4.2,257.4,0.00,8.0,14.0,"05:17:30",1
"23/04/17","05:30",0.0,9.2,93.1,1004.5,281.0,2.1,3.1,269.4,0.00,8.2,14.0,"05:22:32",1
"23/04/17","05:40",0.0,9.4,93.0,1005.2,293.2,1.2,2.2,326.4,0.00,8.4,13.9,"05:36:16",1
"23/04/17","05:50",0.0,9.3,92.9,1005.0,285.7,1.8,4.2,322.1,0.00,8.3,13.9,"05:41:36",1
"23/04/17","06:00",0.0,9.3,92.7,1005.5,280.6,2.2,3.2,313.5,0.00,8.2,13.9,"05:51:28",1
"23/04/17","06:10",0.0,9.4,92.4,1006.0,268.6,2.2,3.4,281.6,0.00,8.3,13.8,"06:08:00",1
"23/04/17","06:20",0.0,9.5,92.2,1006.2,290.6,2.5,3.1,317.4,0.00,8.3,14.0,"06:16:08",1
"23/04/17","06:30",0.0,9.4,92.1,1006.0,297.5,2.0,2.9,318.9,0.00,8.2,13.7,"06:20:40",1
"23/04/17","06:40",0.0,9.1,92.1,1006.4,289.4,1.5,2.6,304.0,0.00,7.9,13.7,"06:36:40",1
"23/04/17","06:50",0.0,9.1,92.2,1006.7,293.6,1.6,2.1,297.4,0.01,7.9,13.7,"06:48:40",1
"23/04/17","07:00",0.0,9.2,92.4,1006.7,284.1,1.1,1.9,318.5,0.02,8.1,13.7,"06:54:08",1
"23/04/17","07:10",0.0,9.6,92.4,1006.4,270.8,0.8,1.7,199.2,0.04,8.5,13.5,"07:01:44",1
"23/04/17","07:20",0.0,9.8,92.2,1006.7,294.6,1.6,3.1,247.3,0.07,8.6,13.6,"07:18:16",1
"23/04/17","07:30",0.0,10.3,91.8,1006.9,257.5,1.3,2.6,246.7,0.10,9.1,13.7,"07:25:04",1
"23/04/17","07:40",0.0,10.6,91.3,1007.4,274.5,1.6,2.4,318.9,0.13,9.3,13.5,"07:36:00",1
"23/04/17","07:50",0.0,10.7,90.2,1007.4,267.4,1.7,3.4,247.5,0.09,9.2,13.6,"07:46:32",1
"23/04/17","08:00",0.0,10.8,89.5,1007.6,271.1,2.2,4.4,248.1,0.14,9.2,13.6,"07:56:00",1
"23/04/17","08:10",0.0,11.3,87.8,1007.8,280.6,2.0,4.3,307.2,0.14,9.4,13.7,"08:06:56",1
"23/04/17","08:20",0.0,11.2,86.1,1008.6,288.4,2.7,5.9,304.4,0.06,9.0,13.5,"08:16:48",1
"23/04/17","08:30",0.0,11.1,85.3,1008.3,283.3,2.7,4.1,300.2,0.05,8.8,13.5,"08:28:16",1
"23/04/17","08:40",0.0,11.5,84.6,1008.6,278.6,2.6,5.8,341.3,0.16,9.0,13.6,"08:32:00",1
"23/04/17","08:50",0.0,11.7,83.9,1009.0,288.5,2.3,4.9,316.5,0.13,9.1,13.5,"08:45:32",1
"23/04/17","09:00",0.0,12.6,82.3,1008.8,303.4,3.0,6.2,326.5,0.24,9.7,13.7,"08:53:12",1
"23/04/17","09:10",0.0,13.3,78.8,1008.8,301.3,2.6,5.5,347.6,0.27,9.7,13.6,"09:06:18",1
"23/04/17","09:20",0.0,13.2,77.2,1009.0,289.8,3.0,5.2,301.4,0.29,9.3,13.5,"09:14:32",1
"23/04/17","09:30",0.0,13.7,76.4,1009.0,305.4,2.7,5.5,317.9,0.38,9.7,13.7,"09:27:20",1
"23/04/17","09:40",0.0,14.1,74.0,1008.8,314.2,2.8,5.2,351.0,0.37,9.6,13.7,"09:31:20",1
"23/04/17","09:50",0.0,13.3,70.5,1009.5,314.6,4.4,10.4,330.1,0.22,8.1,13.6,"09:44:48",1
"23/04/17","10:00",0.0,13.8,68.7,1009.0,327.6,5.5,8.6,331.3,0.40,8.2,13.7,"09:58:06",1
"23/04/17","10:10",0.0,14.2,68.0,1009.3,333.5,4.9,8.9,323.6,0.42,8.4,13.8,"10:06:40",1
"23/04/17","10:20",0.0,14.3,66.9,1009.5,324.6,5.4,9.4,306.7,0.44,8.3,13.7,"10:11:36",1
"23/04/17","10:30",0.0,14.3,65.3,1009.5,325.2,4.7,8.8,338.2,0.38,7.9,14.0,"10:29:44",1
"23/04/17","10:40",0.0,14.4,65.1,1009.7,313.4,4.9,8.8,338.6,0.43,8.0,13.8,"10:36:34",1
"23/04/17","10:50",0.0,14.6,66.2,1009.7,332.9,4.7,9.3,339.8,0.40,8.4,13.7,"10:40:40",1
"23/04/17","11:00",0.0,14.0,69.0,1010.0,351.1,4.5,9.5,347.3,0.49,8.4,13.8,"10:54:24",1
"23/04/17","11:10",0.0,14.1,67.0,1009.7,337.4,4.9,8.8,330.0,0.54,8.1,13.7,"11:09:20",1
"23/04/17","11:20",0.0,14.6,66.6,1009.7,335.2,3.9,10.0,343.8,0.56,8.5,14.1,"11:18:00",1
"23/04/17","11:30",0.0,15.1,64.1,1010.0,321.8,4.6,8.2,333.7,0.55,8.4,14.1,"11:23:28",1
"23/04/17","11:40",0.0,15.1,62.0,1010.0,338.5,5.6,10.1,352.3,0.55,7.9,14.0,"11:34:40",1
"23/04/17","11:50",0.0,15.1,59.6,1010.2,327.2,6.2,10.3,320.5,0.51,7.3,14.0,"11:43:12",1
"23/04/17","12:00",0.0,15.8,58.6,1009.7,318.0,5.0,10.5,331.8,0.58,7.8,14.2,"11:57:04",1
"23/04/17","12:10",0.0,16.2,56.9,1009.7,331.2,3.6,6.3,348.1,0.50,7.7,14.5,"12:00:32",1
"23/04/17","12:20",0.0,16.1,55.8,1009.7,346.9,4.1,7.3,348.5,0.51,7.3,14.4,"12:12:16",1
"23/04/17","12:30",0.0,15.8,55.2,1009.7,343.7,4.1,8.0,328.3,0.39,6.9,14.4,"12:25:52",1
"23/04/17","12:40",0.0,15.8,55.8,1010.2,345.5,5.1,10.4,352.0,0.44,7.0,14.3,"12:37:52",1
"23/04/17","12:50",0.0,15.5,56.3,1010.2,323.5,4.7,8.6,324.9,0.29,6.9,14.5,"12:48:24",1
"23/04/17","13:00",0.0,15.4,56.9,1010.7,343.4,4.5,9.0,330.7,0.31,6.9,14.5,"12:57:12",1
"23/04/17","13:10",0.2,15.9,54.6,1010.4,321.0,4.2,12.9,337.4,0.54,6.8,14.6,"13:08:32",1
"23/04/17","13:20",0.0,16.6,52.6,1010.2,323.7,4.1,9.0,345.2,0.62,6.9,14.6,"13:12:24",1
"23/04/17","13:30",0.0,17.1,50.7,1010.2,316.8,3.9,6.8,347.0,0.56,6.8,14.8,"13:20:24",1
"23/04/17","13:40",0.0,15.5,54.8,1010.7,338.5,5.0,8.7,347.8,0.19,6.5,14.8,"13:38:16",1
"23/04/17","13:50",0.0,15.0,57.3,1010.9,349.0,4.5,8.5,350.8,0.21,6.7,14.8,"13:42:24",1
"23/04/17","14:00",0.0,16.0,53.5,1010.9,321.5,5.2,11.1,325.6,0.59,6.6,14.9,"13:59:12",1
"23/04/17","14:10",0.0,16.5,52.0,1011.2,338.6,5.0,10.2,333.9,0.57,6.7,15.0,"14:04:00",1
"23/04/17","14:20",0.0,17.0,51.7,1010.7,339.7,4.2,10.5,335.7,0.53,7.0,15.1,"14:10:24",1
"23/04/17","14:30",0.0,16.6,51.4,1011.2,348.5,4.1,7.1,343.2,0.38,6.6,15.1,"14:26:08",1
"23/04/17","14:40",0.0,16.5,52.3,1010.9,329.8,4.2,7.5,318.4,0.43,6.7,15.1,"14:37:44",1
"23/04/17","14:50",0.0,17.1,50.0,1010.7,323.7,3.6,6.2,349.8,0.55,6.6,15.2,"14:43:04",1
"23/04/17","15:00",0.0,17.6,49.6,1010.9,343.0,2.8,7.2,345.1,0.47,7.0,15.3,"14:59:28",1
"23/04/17","15:10",0.0,16.8,50.4,1010.7,346.3,4.0,8.6,2.8,0.35,6.5,15.0,"15:00:40",1
"23/04/17","15:20",0.0,17.4,50.2,1010.7,348.1,3.0,6.0,349.3,0.42,7.0,15.3,"15:14:16",1
"23/04/17","15:30",0.0,17.4,48.8,1010.9,350.4,3.5,7.0,351.1,0.45,6.6,15.3,"15:23:12",1
"23/04/17","15:40",0.0,16.8,51.2,1010.7,350.5,3.1,5.9,338.5,0.31,6.7,15.4,"15:31:44",1
"23/04/17","15:50",0.0,16.9,50.5,1011.2,343.2,4.0,7.7,333.9,0.40,6.6,15.5,"15:46:24",1
"23/04/17","16:00",0.0,17.3,49.4,1011.4,336.8,3.7,7.2,338.6,0.41,6.7,15.6,"15:50:56",1
"23/04/17","16:10",0.0,17.3,50.4,1011.4,345.7,3.6,6.5,340.8,0.41,6.9,15.6,"16:03:44",1
"23/04/17","16:20",0.0,16.8,50.8,1011.4,1.3,3.0,6.3,348.5,0.23,6.6,15.6,"16:12:24",1
"23/04/17","16:30",0.0,15.5,52.6,1011.9,334.4,3.9,6.5,350.1,0.08,5.9,15.7,"16:25:52",1
"23/04/17","16:40",0.0,15.6,52.3,1011.9,335.9,3.9,6.8,333.7,0.13,5.9,15.6,"16:31:28",1
"23/04/17","16:50",0.0,16.0,50.8,1011.9,336.5,3.4,7.3,344.2,0.14,5.9,15.8,"16:41:12",1
"23/04/17","17:00",0.0,16.3,50.7,1012.1,312.8,4.1,6.7,346.2,0.21,6.1,15.8,"16:57:52",1
"23/04/17","17:10",0.0,16.5,52.0,1012.1,338.4,3.5,7.8,324.4,0.19,6.7,15.8,"17:05:20",1
"23/04/17","17:20",0.0,16.2,52.0,1012.1,355.3,2.3,4.5,317.0,0.13,6.4,15.7,"17:10:02",1
"23/04/17","17:30",0.0,16.0,50.9,1012.6,340.6,3.4,7.4,350.2,0.12,5.9,15.9,"17:28:40",1
"23/04/17","17:40",0.0,15.9,50.3,1012.8,331.9,3.2,5.5,353.3,0.09,5.6,15.8,"17:31:04",1
"23/04/17","17:50",0.0,15.9,50.5,1012.6,337.3,3.0,5.1,325.0,0.08,5.7,15.7,"17:48:56",1
"23/04/17","18:00",0.0,15.9,54.1,1012.6,341.7,3.0,5.6,337.6,0.06,6.7,15.8,"17:53:46",1
"23/04/17","18:10",0.0,15.8,56.3,1012.3,345.5,1.8,3.6,358.3,0.05,7.2,15.7,"18:03:12",1
"23/04/17","18:20",0.0,15.5,55.7,1013.0,349.7,1.8,3.1,329.3,0.03,6.7,15.6,"18:11:12",1
"23/04/17","18:30",0.0,15.2,57.3,1013.0,350.0,1.6,3.3,345.9,0.02,6.9,15.7,"18:22:36",1
"23/04/17","18:40",0.0,14.7,59.2,1013.3,351.3,1.7,2.8,349.0,0.01,6.9,15.7,"18:39:06",1
"23/04/17","18:50",0.0,14.3,60.3,1013.3,354.3,1.7,3.4,5.3,0.00,6.8,15.5,"18:45:10",1
"23/04/17","19:00",0.0,13.9,61.5,1013.3,346.9,1.8,3.6,318.9,0.00,6.7,15.7,"18:51:28",1
"23/04/17","19:10",0.0,13.6,62.8,1013.8,339.3,2.1,3.7,335.1,0.00,6.7,15.5,"19:00:44",1
"23/04/17","19:20",0.0,13.4,63.7,1013.8,331.2,2.2,3.4,338.2,0.00,6.7,15.7,"19:15:26",1
"23/04/17","19:30",0.0,13.1,66.9,1014.2,339.4,1.7,2.5,341.1,0.00,7.1,15.5,"19:21:32",1
"23/04/17","19:40",0.0,12.2,70.0,1014.0,331.1,1.6,2.7,336.3,0.00,6.9,15.4,"19:32:32",1
"23/04/17","19:50",0.0,11.6,71.9,1014.0,324.7,1.6,2.1,324.4,0.00,6.7,15.4,"19:42:48",1
"23/04/17","20:00",0.0,11.3,73.5,1014.0,325.2,1.6,2.0,340.9,0.00,6.8,15.4,"19:57:06",1
"23/04/17","20:10",0.0,11.1,74.9,1014.0,330.4,2.6,4.1,329.5,0.00,6.9,15.3,"20:09:24",1
"23/04/17","20:20",0.0,11.3,75.2,1014.2,336.0,3.2,4.8,338.9,0.00,7.1,15.5,"20:16:10",1
"23/04/17","20:30",0.0,11.3,75.2,1014.5,336.3,3.2,5.2,340.8,0.00,7.1,15.4,"20:27:16",1
"23/04/17","20:40",0.0,11.4,75.1,1014.5,333.1,3.9,5.5,342.6,0.00,7.2,15.2,"20:33:04",1
"23/04/17","20:50",0.0,11.4,74.8,1015.2,333.4,4.0,5.5,338.4,0.00,7.1,15.2,"20:41:32",1
"23/04/17","21:00",0.0,11.1,74.9,1014.9,331.5,3.4,4.5,347.4,0.00,6.9,15.1,"20:53:20",1
"23/04/17","21:10",0.0,11.1,75.4,1015.2,322.8,3.9,5.1,323.2,0.00,7.0,14.9,"21:06:34",1
"23/04/17","21:20",0.0,10.7,75.8,1015.2,319.1,2.3,4.2,320.2,0.00,6.6,15.0,"21:10:08",1
"23/04/17","21:30",0.0,10.3,76.4,1015.6,289.4,1.2,1.6,309.5,0.00,6.4,15.1,"21:20:08",1
"23/04/17","21:40",0.0,10.1,77.0,1015.4,272.0,1.1,2.0,257.0,0.00,6.3,14.8,"21:39:36",1
"23/04/17","21:50",0.0,10.0,78.0,1015.6,274.7,1.8,2.2,249.0,0.00,6.4,15.0,"21:41:36",1
"23/04/17","22:00",0.0,9.9,79.2,1015.6,291.2,1.8,2.7,307.9,0.00,6.5,14.7,"21:59:20",1
"23/04/17","22:10",0.0,9.7,80.6,1015.9,298.2,2.7,3.6,307.9,0.00,6.6,14.9,"22:07:52",1
"23/04/17","22:20",0.0,9.4,82.1,1015.6,319.7,2.8,4.2,310.6,0.00,6.5,14.7,"22:13:12",1
"23/04/17","22:30",0.0,9.2,83.1,1015.9,314.4,2.0,3.1,303.8,0.00,6.5,14.7,"22:29:36",1
"23/04/17","22:40",0.0,8.9,84.0,1015.9,302.8,2.1,3.4,316.1,0.00,6.4,14.6,"22:30:24",1
"23/04/17","22:50",0.0,8.9,84.7,1016.1,287.4,2.1,2.7,286.2,0.00,6.5,14.7,"22:45:52",1
"23/04/17","23:00",0.0,8.8,85.4,1015.9,286.6,2.0,2.6,289.6,0.00,6.5,14.6,"22:57:44",1
"23/04/17","23:10",0.0,8.7,85.9,1015.9,286.8,2.5,3.6,309.2,0.00,6.5,14.5,"23:03:44",1
"23/04/17","23:20",0.0,8.6,86.5,1016.1,299.3,2.5,3.6,314.9,0.00,6.5,14.3,"23:16:32",1
"23/04/17","23:30",0.0,8.5,86.9,1016.1,290.6,2.3,2.9,324.6,0.00,6.5,14.3,"23:22:08",1
"23/04/17","23:40",0.0,8.3,87.3,1016.1,288.4,2.2,2.8,293.5,0.00,6.4,14.3,"23:37:20",1
"23/04/17","23:50",0.0,8.4,87.7,1015.9,299.2,2.7,3.6,303.0,0.00,6.5,14.1,"23:46:24",1
"23/04/17","24:00",0.0,8.3,87.9,1015.9,305.0,2.3,3.7,310.1,0.00,6.5,14.2,"23:55:04",1
